Luke Air Force Base, AZ

10:16 AM MST on September 29, 2016 (GMT -0700)
Luke Air Force Base

Weather History for KLUF - March, 2013

Change the Weather History Date:

Thursday, March 7, 2013

  Actual Average Record
Temperature  
Mean Temperature 61 °F -  
Max Temperature 76 °F 76 °F 92 °F (1972)
Min Temperature 46 °F 42 °F 30 °F (1931)
Degree Days  
Heating Degree Days 4    
Growing Degree Days 11 (Base 50)    
Moisture  
Dew Point 35 °F    
Average Humidity 39    
Maximum Humidity 69    
Minimum Humidity 17    
Precipitation  
Precipitation 0.00 in - - ()
Sea Level Pressure  
Sea Level Pressure 29.87 in    
Wind  
Wind Speed 4 mph (NW)    
Max Wind Speed 14 mph    
Max Gust Speed 21 mph    
Visibility 10 miles    
Events      
Averages and records for this station are not official NWS values.
T = Trace of Precipitation, MM = Missing Value Source: NWS Daily Summary

Daily Weather History Graph

Daily Weather History Graph

Search for Another Location

Airport or City:

Trip Planner

Search our weather history database for the weather conditions in past years. The results will help you decide how hot, cold, wet, or windy it might be!

Date:

Astronomy

Mar. 07, 2013 Rise Set
Actual Time 6:49 AM MST 6:31 PM MST
Civil Twilight 6:25 AM MST 6:56 PM MST
Nautical Twilight 5:56 AM MST 7:25 PM MST
Astronomical Twilight 5:27 AM MST 7:53 PM MST
Moon 3:42 AM MST (3/7) 2:33 PM MST (3/7)
Length of Visible Light 12h 31m
Length of Day
11h 41m
Waning Crescent, 19% of the Moon is Illuminated
Mar 7
Waning Crescent
Mar 11
New
Mar 19
First Quarter
Mar 27
Full
Apr 2
Last Quarter

Hourly Weather History & Observations

Time (MST) Temp. Dew Point Humidity Pressure Visibility Wind Dir Wind Speed Gust Speed Precip Events Conditions
12:58 AM 54.9 °F 36.9 °F 51% 29.86 in 10.0 mi NNW 3.5 mph - N/A   Clear
1:58 AM 52.2 °F 36.0 °F 54% 29.86 in 10.0 mi NW 5.8 mph - N/A   Clear
2:58 AM 50.7 °F 37.0 °F 59% 29.86 in 10.0 mi NNW 6.9 mph - N/A   Clear
3:58 AM 49.6 °F 38.1 °F 65% 29.84 in 10.0 mi NNW 4.6 mph - N/A   Clear
4:58 AM 48.9 °F 36.5 °F 62% 29.86 in 10.0 mi NNW 2.3 mph - N/A   Clear
5:58 AM 47.7 °F 37.8 °F 69% 29.89 in 10.0 mi North 3.5 mph - N/A   Clear
6:58 AM 46.6 °F 36.5 °F 68% 29.91 in 10.0 mi NW 5.8 mph - N/A   Clear
7:58 AM 50.5 °F 37.4 °F 61% 29.94 in 10.0 mi North 1.2 mph - N/A   Clear
8:58 AM 57.7 °F 37.6 °F 47% 29.94 in 10.0 mi NE 2.3 mph - N/A   Clear
9:08 AM 59.0 °F 35.6 °F 42% 29.95 in 10.0 mi Calm Calm - N/A   Light Drizzle
9:59 AM 62.8 °F 35.8 °F 37% 29.95 in 10.0 mi South 2.3 mph - N/A   Clear
10:58 AM 66.9 °F 34.9 °F 31% 29.94 in 10.0 mi Variable 1.2 mph - N/A   Clear
11:58 AM 70.2 °F 34.5 °F 27% 29.93 in 10.0 mi SSE 3.5 mph - N/A   Clear
12:58 PM 72.7 °F 33.1 °F 23% 29.91 in 10.0 mi WSW 2.3 mph - N/A   Clear
1:58 PM 74.3 °F 34.2 °F 23% 29.86 in 10.0 mi South 8.1 mph - N/A   Clear
2:58 PM 74.8 °F 33.1 °F 22% 29.85 in 10.0 mi SE 10.4 mph - N/A   Clear
3:58 PM 76.6 °F 31.1 °F 19% 29.83 in 10.0 mi SW 13.8 mph 20.7 mph N/A   Clear
4:58 PM 76.3 °F 28.6 °F 17% 29.83 in 10.0 mi SW 12.7 mph - N/A   Clear
5:58 PM 73.0 °F 30.2 °F 21% 29.82 in 10.0 mi SW 5.8 mph - N/A   Clear
6:58 PM 70.5 °F 31.5 °F 24% 29.82 in 10.0 mi WNW 2.3 mph - N/A   Partly Cloudy
7:58 PM 65.8 °F 37.0 °F 35% 29.83 in 10.0 mi NNW 3.5 mph - N/A   Partly Cloudy
8:58 PM 65.7 °F 34.5 °F 31% 29.83 in 10.0 mi NW 2.3 mph - N/A   Partly Cloudy
9:08 PM 64.4 °F 35.6 °F 34% 29.84 in 10.0 mi NW 1.2 mph - N/A   Light Drizzle
9:15 PM 64.4 °F 33.8 °F 32% 29.84 in 10.0 mi NW 2.3 mph - N/A   Clear
9:18 PM 64.4 °F 33.8 °F 32% 29.84 in 10.0 mi NW 2.3 mph - N/A   Clear
9:58 PM 66.6 °F 33.1 °F 29% 29.83 in 10.0 mi Calm Calm - 0.00 in   Clear
10:58 PM 60.1 °F 39.4 °F 46% 29.83 in 10.0 mi NNW 2.3 mph - N/A   Mostly Cloudy
11:58 PM 64.8 °F 30.4 °F 28% 29.81 in 10.0 mi SSW 12.7 mph - N/A   Clear